QPF
0.00 0.00 0.00 0.00 0.00 0.00 0.00 0.00 0.00 0.00 0.00 0.00 0.00 0.00 0.00 0.00 0.00 0.00 0.00 0.00 0.00 0.00 0.00 0.00 0.00 0.00 0.00 0.00 0.00 0.00 0.00 0.00 0.00 0.00 0.00 0.00 0.00 0.00 0.00 0.00 0.00 0.00 0.00 0.00
0.00 0.00 0.00 0.00 0.00 0.00 0.00 0.00 0.00 0.00 0.00 0.00 0.00 0.00 0.00 0.00 0.00 0.00 0.00 0.00 0.00 0.00 0.00 0.00 0.00 0.00 0.00 0.00 0.00 0.00 0.00 0.00 0.00 0.00 0.00 0.00 0.00 0.00 0.00 0.00 0.00 0.00 0.00 0.00
0.00 0.00 0.00 0.00 0.00 0.00 0.00 0.00 0.00 0.00 0.00 0.00 0.00 0.00 0.00 0.00 0.00 0.00 0.00 0.00 0.00 0.00 0.00 0.00 0.00 0.00 0.00 0.00 0.00 0.00 0.00 0.00 0.00 0.00 0.00 0.00 0.00 0.00 0.00 0.00 0.00 0.00 0.00 0.00
0.00 0.00 0.00 0.00 0.00 0.00 0.00 0.00 0.00 0.00 0.00 0.00 0.00 0.00 0.00 0.00 0.00 0.00 0.00 0.00 0.00 0.00 0.00 0.00 0.00 0.00 0.00 0.00 0.00 0.00 0.00 0.00 0.00 0.00 0.00 0.00 0.00 0.00 0.00 0.00 0.00 0.00 0.00 0.00
0.00 0.00 0.00 0.00 0.00 0.00 0.00 0.00 0.00 0.00 0.00 0.00 0.00 0.00 0.00 0.00 0.00 0.00 0.00 0.00 0.00 0.00 0.00 0.00 0.00 0.00 0.00 0.00 0.00 0.00 0.00 0.00 0.00 0.00 0.00 0.00 0.00 0.00 0.00 0.00 0.00 0.00 0.00 0.00
0.00 0.00 0.00 0.00 0.00 0.00 0.00 0.00 0.00 0.00 0.00 0.00 0.00 0.00 0.00 0.00 0.00 0.00 0.00 0.00 0.00 0.00 0.00 0.00 0.00 0.00 0.00 0.00 0.00 0.00 0.00 0.00 0.00 0.00 0.00 0.00 0.00 0.00 0.00 0.00 0.00 0.00 0.00 0.00
0.00 0.00 0.00 0.00 0.00 0.00 0.00 0.00 0.00 0.00 0.00 0.00 0.00 0.00 0.00 0.00 0.00 0.00 0.00 0.00 0.00 0.00 0.00 0.00 0.00 0.00 0.00 0.00 0.00 0.00 0.00 0.00 0.00 0.00 0.00 0.00 0.00 0.00 0.00 0.00 0.00 0.00 0.00 0.00
0.00 0.00 0.00 0.00 0.00 0.00 0.00 0.00 0.00 0.00 0.00 0.00 0.00 0.00 0.00 0.00 0.00 0.00 0.00 0.00 0.00 0.00 0.00 0.00 0.00 0.00 0.00 0.00 0.00 0.00 0.00 0.00 0.00 0.00 0.00 0.00 0.00 0.00 0.00 0.00 0.00 0.00 0.00 0.00
0.00 0.00 0.00 0.00 0.00 0.00 0.00 0.00 0.00 0.00 0.00 0.00 0.00 0.00 0.00 0.00 0.00 0.00 0.00 0.00 0.00 0.00 0.00 0.00 0.00 0.00 0.00 0.00 0.00 0.00 0.00 0.00 0.00 0.00 0.00 0.00 0.00 0.00 0.00 0.00 0.00 0.00 0.00 0.00
0.00 0.00 0.00 0.00 0.00 0.00 0.00 0.00 0.00 0.00 0.00 0.00 0.00 0.00 0.00 0.00 0.00 0.00 0.00 0.00 0.00 0.00 0.00 0.00 0.00 0.00 0.00 0.00 0.00 0.00 0.00 0.00 0.00 0.00 0.00 0.00 0.00 0.00 0.00 0.00 0.00 0.00 0.00 0.00
0.00 0.00 0.00 0.00 0.00 0.00 0.00 0.00 0.00 0.00 0.00 0.00 0.00 0.00 0.00 0.00 0.00 0.00 0.00 0.00 0.00 0.00 0.00 0.00 0.00 0.00 0.00 0.00 0.00 0.00 0.00 0.00 0.00 0.00 0.00 0.00 0.00 0.00 0.00 0.00 0.00 0.00 0.00 0.00
0.00 0.00 0.00 0.00 0.00 0.00 0.00 0.00 0.00 0.00 0.00 0.00 0.00 0.00 0.00 0.00 0.00 0.00 0.00 0.00 0.00 0.00 0.00 0.00 0.00 0.00 0.00 0.00 0.00 0.00 0.00 0.00 0.00 0.00 0.00 0.00 0.00 0.00 0.00 0.00 0.00 0.00 0.00 0.00
0.00 0.00 0.00 0.00 0.00 0.00 0.00 0.00 0.00 0.00 0.00 0.00 0.00 0.00 0.00 0.00 0.00 0.00 0.00 0.00 0.00 0.00 0.00 0.00 0.00 0.00 0.00 0.00 0.00 0.00 0.00 0.00 0.00 0.00 0.00 0.00 0.00 0.00 0.00 0.00 0.00 0.00 0.00 0.00
0.00 0.00 0.00 0.00 0.00 0.00 0.00 0.00 0.00 0.00 0.00 0.00 0.00 0.00 0.00 0.00 0.00 0.00 0.00 0.00 0.00 0.00 0.00 0.00 0.00 0.00 0.00 0.00 0.00 0.00 0.00 0.00 0.00 0.00 0.00 0.00 0.00 0.00 0.00 0.00 0.00 0.00 0.00 0.00
0.00 0.00 0.00 0.00 0.00 0.00 0.00 0.00 0.00 0.00 0.00 0.00 0.00 0.00 0.00 0.00 0.00 0.00 0.00 0.00 0.00 0.00 0.00 0.00 0.00 0.00 0.00 0.00 0.00 0.00 0.00 0.00 0.00 0.00 0.00 0.00 0.00 0.00 0.00 0.00 0.00 0.00 0.00 0.00
0.00 0.00 0.00 0.00 0.00 0.00 0.00 0.00 0.00 0.00 0.00 0.00 0.00 0.00 0.00 0.00 0.00 0.00 0.00 0.00 0.00 0.00 0.00 0.00 0.00 0.00 0.00 0.00 0.00 0.00 0.00 0.00 0.00 0.00 0.00 0.00 0.00 0.00 0.00 0.00 0.00 0.00 0.00 0.00
0.00 0.00 0.00 0.00 0.00 0.00 0.00 0.00 0.00 0.00 0.00 0.00 0.00 0.00 0.00 0.00 0.00 0.00 0.00 0.00 0.00 0.00 0.00 0.00 0.00 0.00 0.00 0.00 0.00 0.00 0.00 0.00 0.00 0.00 0.00 0.00 0.00 0.00 0.00 0.00 0.00 0.00 0.00 0.00
0.00 0.00 0.00 0.00 0.00 0.00 0.00 0.00 0.00 0.00 0.00 0.00 0.00 0.00 0.00 0.00 0.00 0.00 0.00 0.00 0.00 0.00 0.00 0.00 0.00 0.00 0.00 0.00 0.00 0.00 0.00 0.00 0.00 0.00 0.00 0.00 0.00 0.00 0.00 0.00 0.00 0.00 0.00 0.00
0.00 0.00 0.00 0.00 0.00 0.00 0.00 0.00 0.00 0.00 0.00 0.00 0.00 0.00 0.00 0.00 0.00 0.00 0.00 0.00 0.00 0.00 0.00 0.00 0.00 0.00 0.00 0.00 0.00 0.00 0.00 0.00 0.00 0.00 0.00 0.00 0.00 0.00 0.00 0.00 0.00 0.00 0.00 0.00
0.00 0.00 0.00 0.00 0.00 0.00 0.00 0.00 0.00 0.00 0.00 0.00 0.00 0.00 0.00 0.00 0.00 0.00 0.00 0.00 0.00 0.00 0.00 0.00 0.00 0.00 0.00 0.00 0.00 0.00 0.00 0.00 0.00 0.00 0.00 0.00 0.00 0.00 0.00 0.00 0.00 0.00 0.00 0.00
0.00 0.00 0.00 0.00 0.00 0.00 0.00 0.00 0.00 0.00 0.00 0.00 0.00 0.00 0.00 0.00 0.00 0.00 0.00 0.00 0.00 0.00 0.00 0.00 0.00 0.00 0.00 0.00 0.00 0.00 0.00 0.00 0.00 0.00 0.00 0.00 0.00 0.00 0.00 0.00 0.00 0.00 0.00 0.00
0.00 0.00 0.00 0.00 0.00 0.00 0.00 0.00 0.00 0.00 0.00 0.00 0.00 0.00 0.00 0.00 0.00 0.00 0.00 0.00 0.00 0.00 0.00 0.00 0.00 0.00 0.00 0.00 0.00 0.00 0.00 0.00 0.00 0.00 0.00 0.00 0.00 0.00 0.00 0.00 0.00 0.00 0.00 0.00
0.00 0.00 0.00 0.00 0.00 0.00 0.00 0.00 0.00 0.00 0.00 0.00 0.00 0.00 0.00 0.00 0.00 0.00 0.00 0.00 0.00 0.00 0.00 0.00 0.00 0.00 0.00 0.00 0.00 0.00 0.00 0.00 0.00 0.00 0.00 0.00 0.00 0.00 0.00 0.00 0.00 0.00 0.00 0.00
0.00 0.00 0.00 0.00 0.00 0.00 0.00 0.00 0.00 0.00 0.00 0.00 0.00 0.00 0.00 0.00 0.00 0.00 0.00 0.00 0.00 0.00 0.00 0.00 0.00 0.00 0.00 0.00 0.00 0.00 0.00 0.00 0.00 0.00 0.00 0.00 0.00 0.00 0.00 0.00 0.00 0.00 0.00 0.00
0.00 0.00 0.00 0.00 0.00 0.00 0.00 0.00 0.00 0.00 0.00 0.00 0.00 0.00 0.00 0.00 0.00 0.00 0.00 0.00 0.00 0.00 0.00 0.00 0.00 0.00 0.00 0.00 0.00 0.00 0.00 0.00 0.00 0.00 0.00 0.00 0.00 0.00 0.00 0.00 0.00 0.00 0.00 0.00
0.00 0.00 0.00 0.00 0.00 0.00 0.00 0.00 0.00 0.00 0.00 0.00 0.00 0.00 0.00 0.00 0.00 0.00 0.00 0.00 0.00 0.00 0.00 0.00 0.00 0.00 0.00 0.00 0.00 0.00 0.00 0.00 0.00 0.00 0.00 0.00 0.00 0.00 0.00 0.00 0.00 0.00 0.00 0.00
MSLP
1014.40 1014.84 1015.13 1015.29 1015.34 1015.33 1015.28 1015.20 1015.09 1014.95 1014.75 1014.48 1014.16 1013.82 1013.49 1013.24 1013.11 1013.14 1013.31 1013.62 1014.00 1014.41 1014.76 1015.03 1015.20 1015.29 1015.33 1015.39 1015.52 1015.77 1016.15 1016.65 1017.22 1017.82 1018.37 1018.83 1019.16 1019.37 1019.48 1019.53 1019.56 1019.62 1019.72 1019.89
1014.30 1014.64 1014.86 1014.99 1015.06 1015.11 1015.15 1015.18 1015.18 1015.11 1014.94 1014.68 1014.32 1013.92 1013.53 1013.22 1013.06 1013.08 1013.29 1013.66 1014.13 1014.63 1015.07 1015.40 1015.61 1015.70 1015.73 1015.76 1015.86 1016.07 1016.43 1016.91 1017.48 1018.06 1018.61 1019.05 1019.35 1019.51 1019.56 1019.55 1019.51 1019.51 1019.58 1019.72
1014.06 1014.30 1014.46 1014.58 1014.70 1014.84 1014.99 1015.15 1015.25 1015.26 1015.13 1014.85 1014.45 1013.97 1013.50 1013.12 1012.92 1012.93 1013.16 1013.58 1014.13 1014.72 1015.24 1015.65 1015.91 1016.04 1016.08 1016.10 1016.18 1016.37 1016.70 1017.17 1017.72 1018.29 1018.82 1019.24 1019.52 1019.64 1019.65 1019.58 1019.50 1019.46 1019.48 1019.59
1013.76 1013.92 1014.03 1014.16 1014.34 1014.57 1014.85 1015.13 1015.33 1015.40 1015.29 1014.99 1014.53 1013.97 1013.40 1012.94 1012.67 1012.65 1012.90 1013.36 1013.98 1014.65 1015.27 1015.77 1016.11 1016.29 1016.36 1016.40 1016.47 1016.65 1016.95 1017.39 1017.92 1018.46 1018.97 1019.36 1019.61 1019.72 1019.70 1019.61 1019.50 1019.43 1019.42 1019.50
1013.45 1013.54 1013.63 1013.79 1014.03 1014.37 1014.76 1015.13 1015.41 1015.53 1015.42 1015.08 1014.54 1013.88 1013.21 1012.66 1012.33 1012.27 1012.51 1013.01 1013.69 1014.45 1015.17 1015.76 1016.18 1016.44 1016.57 1016.63 1016.71 1016.87 1017.15 1017.55 1018.03 1018.54 1019.00 1019.37 1019.61 1019.71 1019.69 1019.60 1019.49 1019.41 1019.39 1019.45
1013.13 1013.19 1013.29 1013.48 1013.80 1014.22 1014.70 1015.15 1015.48 1015.61 1015.48 1015.09 1014.47 1013.72 1012.96 1012.32 1011.92 1011.82 1012.05 1012.57 1013.30 1014.13 1014.93 1015.62 1016.14 1016.48 1016.68 1016.79 1016.88 1017.03 1017.28 1017.62 1018.05 1018.50 1018.93 1019.27 1019.50 1019.61 1019.61 1019.55 1019.46 1019.40 1019.39 1019.43
1012.80 1012.84 1012.97 1013.22 1013.60 1014.10 1014.64 1015.14 1015.49 1015.62 1015.46 1015.01 1014.32 1013.49 1012.65 1011.94 1011.48 1011.35 1011.56 1012.08 1012.84 1013.71 1014.59 1015.37 1015.98 1016.41 1016.67 1016.84 1016.96 1017.10 1017.32 1017.61 1017.98 1018.38 1018.76 1019.08 1019.31 1019.44 1019.48 1019.47 1019.43 1019.41 1019.41 1019.45
1012.39 1012.47 1012.64 1012.95 1013.39 1013.94 1014.52 1015.05 1015.40 1015.50 1015.31 1014.82 1014.09 1013.21 1012.33 1011.57 1011.07 1010.89 1011.08 1011.58 1012.34 1013.24 1014.16 1015.00 1015.69 1016.20 1016.54 1016.77 1016.92 1017.08 1017.28 1017.53 1017.85 1018.20 1018.54 1018.84 1019.08 1019.24 1019.33 1019.38 1019.40 1019.42 1019.45 1019.49
1011.88 1012.01 1012.25 1012.62 1013.11 1013.70 1014.29 1014.81 1015.15 1015.24 1015.02 1014.52 1013.77 1012.88 1011.99 1011.22 1010.69 1010.49 1010.63 1011.10 1011.83 1012.72 1013.65 1014.52 1015.27 1015.85 1016.27 1016.57 1016.79 1016.97 1017.18 1017.42 1017.70 1018.02 1018.33 1018.62 1018.87 1019.06 1019.20 1019.30 1019.38 1019.44 1019.49 1019.52
1011.27 1011.47 1011.78 1012.20 1012.74 1013.33 1013.92 1014.42 1014.73 1014.80 1014.58 1014.08 1013.36 1012.50 1011.64 1010.89 1010.36 1010.13 1010.24 1010.65 1011.33 1012.16 1013.07 1013.95 1014.73 1015.38 1015.89 1016.27 1016.56 1016.81 1017.05 1017.31 1017.59 1017.88 1018.18 1018.46 1018.72 1018.93 1019.11 1019.25 1019.36 1019.44 1019.50 1019.51
1010.60 1010.88 1011.26 1011.73 1012.28 1012.86 1013.42 1013.88 1014.15 1014.20 1013.98 1013.51 1012.85 1012.06 1011.26 1010.56 1010.06 1009.83 1009.89 1010.24 1010.83 1011.60 1012.45 1013.31 1014.12 1014.82 1015.41 1015.89 1016.29 1016.63 1016.93 1017.23 1017.53 1017.84 1018.13 1018.40 1018.65 1018.88 1019.06 1019.21 1019.33 1019.41 1019.44 1019.42
1009.99 1010.34 1010.76 1011.25 1011.79 1012.33 1012.83 1013.22 1013.45 1013.47 1013.26 1012.84 1012.24 1011.55 1010.84 1010.22 1009.76 1009.53 1009.56 1009.84 1010.35 1011.04 1011.83 1012.66 1013.48 1014.23 1014.91 1015.50 1016.01 1016.46 1016.86 1017.22 1017.56 1017.87 1018.17 1018.43 1018.67 1018.87 1019.04 1019.17 1019.26 1019.31 1019.30 1019.23
1009.53 1009.93 1010.38 1010.86 1011.35 1011.82 1012.23 1012.53 1012.68 1012.65 1012.45 1012.07 1011.55 1010.97 1010.37 1009.84 1009.45 1009.24 1009.25 1009.48 1009.92 1010.53 1011.26 1012.06 1012.89 1013.69 1014.45 1015.15 1015.78 1016.34 1016.83 1017.26 1017.64 1017.97 1018.26 1018.50 1018.71 1018.88 1019.00 1019.09 1019.13 1019.13 1019.06 1018.93
1009.30 1009.73 1010.17 1010.61 1011.03 1011.39 1011.68 1011.85 1011.90 1011.81 1011.58 1011.23 1010.79 1010.31 1009.83 1009.40 1009.09 1008.93 1008.95 1009.16 1009.56 1010.11 1010.80 1011.58 1012.41 1013.26 1014.10 1014.89 1015.62 1016.28 1016.85 1017.34 1017.75 1018.09 1018.36 1018.57 1018.73 1018.84 1018.91 1018.94 1018.93 1018.86 1018.73 1018.54
1009.31 1009.74 1010.15 1010.52 1010.83 1011.06 1011.19 1011.23 1011.15 1010.97 1010.71 1010.37 1009.99 1009.60 1009.23 1008.93 1008.72 1008.64 1008.70 1008.93 1009.31 1009.84 1010.51 1011.28 1012.13 1013.01 1013.89 1014.75 1015.55 1016.27 1016.89 1017.41 1017.83 1018.15 1018.39 1018.55 1018.66 1018.72 1018.74 1018.71 1018.65 1018.53 1018.35 1018.11
1009.50 1009.90 1010.25 1010.53 1010.72 1010.80 1010.77 1010.65 1010.44 1010.17 1009.85 1009.52 1009.19 1008.88 1008.63 1008.45 1008.36 1008.38 1008.53 1008.80 1009.22 1009.76 1010.43 1011.21 1012.06 1012.96 1013.86 1014.75 1015.57 1016.30 1016.93 1017.44 1017.83 1018.11 1018.30 1018.41 1018.47 1018.48 1018.45 1018.39 1018.29 1018.15 1017.94 1017.68
1009.72 1010.08 1010.36 1010.54 1010.60 1010.54 1010.36 1010.09 1009.76 1009.40 1009.04 1008.70 1008.42 1008.21 1008.07 1008.03 1008.07 1008.22 1008.48 1008.84 1009.32 1009.90 1010.59 1011.37 1012.22 1013.11 1014.00 1014.86 1015.65 1016.35 1016.92 1017.38 1017.71 1017.94 1018.07 1018.13 1018.14 1018.12 1018.07 1018.00 1017.89 1017.74 1017.54 1017.28
1009.82 1010.12 1010.33 1010.42 1010.37 1010.18 1009.89 1009.51 1009.09 1008.67 1008.29 1007.98 1007.75 1007.63 1007.62 1007.72 1007.91 1008.20 1008.59 1009.06 1009.62 1010.26 1010.98 1011.76 1012.58 1013.43 1014.26 1015.04 1015.75 1016.36 1016.85 1017.22 1017.47 1017.62 1017.69 1017.71 1017.69 1017.65 1017.61 1017.54 1017.45 1017.33 1017.15 1016.91
1009.65 1009.90 1010.04 1010.05 1009.92 1009.67 1009.31 1008.88 1008.43 1008.00 1007.64 1007.37 1007.23 1007.22 1007.33 1007.57 1007.92 1008.36 1008.87 1009.45 1010.10 1010.79 1011.53 1012.29 1013.07 1013.84 1014.58 1015.25 1015.84 1016.33 1016.69 1016.95 1017.11 1017.19 1017.20 1017.18 1017.15 1017.12 1017.09 1017.05 1016.99 1016.90 1016.75 1016.54
1009.16 1009.35 1009.43 1009.40 1009.24 1008.96 1008.60 1008.19 1007.77 1007.39 1007.10 1006.93 1006.89 1007.00 1007.25 1007.63 1008.11 1008.68 1009.31 1009.99 1010.70 1011.43 1012.17 1012.89 1013.60 1014.27 1014.89 1015.43 1015.87 1016.22 1016.46 1016.61 1016.68 1016.69 1016.66 1016.62 1016.59 1016.57 1016.55 1016.54 1016.51 1016.45 1016.32 1016.13
1008.38 1008.51 1008.55 1008.50 1008.35 1008.11 1007.81 1007.48 1007.16 1006.89 1006.72 1006.67 1006.76 1007.00 1007.37 1007.88 1008.48 1009.15 1009.87 1010.61 1011.36 1012.09 1012.80 1013.47 1014.09 1014.64 1015.13 1015.52 1015.83 1016.05 1016.17 1016.22 1016.22 1016.18 1016.12 1016.07 1016.04 1016.02 1016.02 1016.03 1016.01 1015.95 1015.83 1015.63
1007.43 1007.51 1007.52 1007.48 1007.37 1007.21 1007.01 1006.81 1006.64 1006.53 1006.51 1006.61 1006.83 1007.20 1007.69 1008.28 1008.97 1009.70 1010.47 1011.23 1011.98 1012.69 1013.34 1013.93 1014.45 1014.89 1015.24 1015.51 1015.70 1015.80 1015.84 1015.82 1015.77 1015.70 1015.63 1015.57 1015.54 1015.52 1015.51 1015.50 1015.46 1015.38 1015.23 1015.01
1006.49 1006.50 1006.49 1006.47 1006.42 1006.37 1006.31 1006.27 1006.27 1006.33 1006.48 1006.72 1007.08 1007.55 1008.13 1008.79 1009.52 1010.28 1011.04 1011.79 1012.50 1013.16 1013.74 1014.24 1014.65 1014.98 1015.22 1015.39 1015.48 1015.51 1015.49 1015.44 1015.36 1015.28 1015.21 1015.15 1015.10 1015.06 1015.02 1014.96 1014.87 1014.73 1014.53 1014.26
1005.70 1005.65 1005.63 1005.63 1005.66 1005.71 1005.79 1005.91 1006.08 1006.31 1006.61 1007.00 1007.47 1008.02 1008.65 1009.33 1010.06 1010.80 1011.53 1012.23 1012.88 1013.45 1013.95 1014.36 1014.68 1014.92 1015.08 1015.17 1015.20 1015.19 1015.15 1015.08 1015.01 1014.93 1014.85 1014.78 1014.71 1014.63 1014.53 1014.41 1014.24 1014.02 1013.75 1013.41
1005.19 1005.09 1005.05 1005.07 1005.16 1005.31 1005.52 1005.78 1006.09 1006.47 1006.90 1007.38 1007.93 1008.53 1009.17 1009.85 1010.55 1011.24 1011.91 1012.53 1013.09 1013.59 1013.99 1014.32 1014.56 1014.73 1014.82 1014.87 1014.88 1014.85 1014.81 1014.75 1014.69 1014.62 1014.54 1014.45 1014.34 1014.20 1014.03 1013.82 1013.56 1013.26 1012.91 1012.51
1005.00 1004.85 1004.80 1004.84 1004.97 1005.20 1005.50 1005.87 1006.30 1006.77 1007.29 1007.84 1008.43 1009.04 1009.67 1010.31 1010.95 1011.57 1012.16 1012.70 1013.18 1013.58 1013.91 1014.16 1014.34 1014.45 1014.52 1014.54 1014.54 1014.51 1014.48 1014.43 1014.38 1014.31 1014.22 1014.11 1013.95 1013.75 1013.51 1013.21 1012.86 1012.48 1012.06 1011.62
Thickness
5672 5664 5664 5672 5679 5681 5680 5676 5675 5686 5697 5692 5686 5688 5699 5705 5702 5699 5698 5694 5689 5685 5686 5686 5685 5684 5682 5679 5675 5670 5665 5661 5656 5650 5644 5638 5633 5630 5627 5624 5620 5617 5614 5612
5659 5658 5672 5680 5681 5678 5672 5665 5668 5680 5692 5686 5681 5686 5699 5703 5700 5699 5695 5690 5685 5680 5678 5678 5677 5675 5673 5669 5666 5662 5658 5653 5648 5643 5638 5633 5628 5624 5621 5618 5615 5612 5609 5607
5652 5667 5676 5674 5670 5665 5663 5660 5664 5670 5680 5681 5673 5674 5691 5697 5698 5697 5694 5689 5683 5677 5673 5671 5669 5666 5663 5660 5657 5654 5650 5645 5640 5635 5630 5625 5620 5616 5613 5610 5608 5606 5604 5602
5656 5669 5667 5662 5662 5661 5655 5670 5671 5667 5659 5659 5668 5654 5684 5685 5683 5685 5684 5682 5678 5674 5670 5666 5662 5658 5654 5651 5649 5646 5641 5637 5632 5628 5622 5618 5613 5609 5607 5604 5602 5601 5599 5596
5653 5662 5658 5654 5659 5661 5661 5665 5664 5660 5652 5648 5661 5653 5672 5680 5672 5674 5677 5676 5673 5669 5664 5660 5655 5651 5647 5644 5641 5637 5633 5628 5624 5620 5615 5611 5606 5603 5601 5598 5596 5594 5592 5590
5653 5662 5660 5658 5661 5661 5660 5655 5652 5649 5641 5633 5659 5651 5664 5675 5679 5675 5674 5672 5668 5664 5659 5653 5649 5645 5640 5636 5633 5629 5625 5620 5616 5612 5607 5602 5598 5595 5592 5589 5587 5584 5583 5581
5638 5647 5654 5657 5645 5647 5647 5636 5627 5623 5619 5631 5670 5662 5670 5693 5694 5685 5677 5671 5665 5659 5653 5647 5642 5638 5633 5629 5626 5622 5617 5612 5608 5604 5599 5595 5591 5587 5584 5581 5578 5575 5573 5571
5625 5632 5648 5650 5646 5639 5636 5637 5627 5625 5630 5646 5651 5652 5673 5688 5691 5689 5681 5671 5662 5655 5648 5643 5638 5633 5628 5624 5620 5615 5610 5605 5600 5596 5591 5587 5584 5579 5576 5573 5570 5567 5564 5562
5633 5634 5651 5652 5651 5645 5637 5634 5646 5633 5636 5633 5647 5665 5668 5680 5676 5676 5672 5665 5657 5651 5645 5639 5634 5628 5623 5618 5614 5609 5603 5597 5592 5588 5583 5579 5575 5572 5568 5565 5562 5559 5556 5554
5639 5631 5631 5634 5639 5638 5640 5643 5631 5622 5617 5618 5644 5655 5657 5658 5661 5664 5663 5658 5652 5647 5641 5635 5629 5623 5618 5612 5607 5601 5596 5590 5584 5579 5575 5571 5567 5563 5560 5556 5553 5550 5547 5544
5634 5623 5616 5619 5622 5627 5627 5629 5632 5630 5632 5621 5624 5645 5667 5666 5664 5659 5658 5656 5650 5644 5638 5631 5624 5617 5611 5604 5598 5592 5587 5581 5575 5570 5566 5561 5557 5554 5550 5547 5544 5541 5537 5534
5630 5623 5616 5620 5633 5638 5634 5632 5629 5619 5624 5629 5621 5635 5666 5667 5666 5660 5655 5652 5648 5641 5634 5626 5618 5610 5603 5596 5590 5583 5578 5572 5566 5561 5556 5552 5548 5544 5540 5537 5533 5530 5526 5523
5623 5616 5608 5607 5612 5620 5625 5631 5633 5630 5624 5619 5615 5632 5654 5657 5657 5655 5651 5647 5642 5636 5628 5620 5611 5603 5595 5588 5581 5575 5568 5562 5557 5551 5546 5541 5537 5533 5529 5526 5522 5519 5515 5511
5625 5616 5614 5613 5620 5620 5619 5625 5628 5622 5612 5615 5622 5635 5641 5644 5644 5645 5644 5640 5635 5629 5621 5612 5603 5595 5588 5580 5573 5566 5559 5553 5547 5541 5536 5531 5526 5522 5518 5515 5511 5507 5503 5499
5612 5608 5617 5624 5628 5627 5625 5624 5621 5618 5620 5617 5628 5634 5643 5644 5642 5640 5637 5633 5626 5619 5612 5604 5595 5586 5578 5570 5563 5556 5549 5542 5536 5530 5525 5520 5516 5512 5507 5503 5499 5495 5491 5487
5604 5602 5609 5611 5620 5619 5617 5621 5621 5619 5621 5621 5624 5629 5644 5646 5642 5635 5630 5624 5617 5610 5603 5595 5586 5577 5568 5559 5552 5544 5538 5532 5526 5520 5515 5510 5505 5501 5496 5491 5487 5483 5479 5475
5595 5595 5595 5593 5607 5605 5600 5616 5618 5619 5624 5622 5617 5628 5635 5632 5630 5627 5623 5617 5610 5602 5594 5584 5575 5566 5557 5549 5541 5533 5527 5521 5515 5509 5504 5499 5495 5490 5485 5481 5476 5471 5467 5463
5592 5589 5585 5583 5587 5575 5611 5632 5629 5624 5626 5627 5626 5628 5627 5624 5621 5619 5614 5607 5599 5591 5582 5572 5562 5553 5544 5536 5529 5522 5516 5510 5504 5499 5494 5489 5484 5479 5474 5469 5464 5460 5455 5451
5590 5585 5578 5569 5569 5584 5610 5620 5620 5615 5616 5627 5624 5623 5617 5609 5604 5600 5601 5596 5588 5579 5569 5559 5549 5540 5531 5524 5517 5510 5504 5499 5493 5488 5483 5478 5473 5468 5462 5457 5453 5448 5444 5439
5576 5578 5571 5564 5561 5567 5603 5613 5618 5610 5599 5620 5619 5612 5601 5594 5581 5583 5585 5580 5571 5563 5553 5544 5535 5526 5518 5511 5505 5498 5493 5487 5483 5479 5474 5469 5463 5457 5451 5447 5442 5437 5431 5426
5558 5561 5561 5560 5557 5575 5602 5600 5601 5584 5593 5605 5606 5600 5591 5583 5578 5574 5569 5561 5553 5544 5536 5528 5520 5512 5505 5499 5493 5487 5482 5477 5473 5469 5464 5458 5452 5446 5441 5436 5431 5424 5419 5413
5562 5557 5558 5558 5553 5567 5588 5587 5586 5590 5592 5593 5590 5587 5579 5569 5565 5559 5552 5543 5535 5527 5520 5513 5505 5498 5493 5488 5482 5476 5471 5467 5463 5458 5452 5447 5441 5435 5431 5424 5418 5411 5403 5397
5569 5572 5572 5572 5575 5588 5586 5586 5586 5586 5582 5580 5576 5572 5563 5554 5548 5541 5534 5526 5520 5513 5506 5500 5493 5486 5481 5476 5471 5464 5460 5457 5452 5446 5440 5435 5430 5424 5417 5410 5403 5396 5388 5380
5571 5577 5573 5574 5578 5579 5578 5577 5575 5574 5572 5568 5564 5558 5551 5542 5534 5527 5520 5512 5505 5499 5492 5486 5480 5474 5468 5464 5459 5454 5450 5445 5440 5434 5428 5423 5417 5411 5405 5397 5390 5381 5372 5363
5569 5563 5562 5564 5569 5567 5566 5567 5565 5561 5558 5554 5550 5545 5539 5531 5522 5514 5507 5499 5492 5486 5479 5473 5467 5462 5457 5452 5448 5443 5438 5433 5428 5422 5416 5410 5404 5397 5392 5385 5376 5367 5359 5347
5560 5556 5554 5557 5564 5559 5558 5557 5555 5549 5544 5539 5534 5528 5524 5517 5510 5502 5494 5487 5480 5473 5467 5461 5455 5450 5445 5441 5436 5432 5427 5422 5415 5409 5403 5396 5390 5383 5376 5370 5365 5359 5348 5341